Location: Hac?musa Deresi
(39.1694°N, 32.2508°E)
Time: 10:46:18
(UTC+00:00)

SL-16 R/B - Pass Details

Date: 22 April 2026
Orbit: 839 x 849 km, 71.0° (Epoch: 12 May)

Event Time Altitude Azimuth Distance (km) Brightness Sun altitude
Rises 19:08:45 0° 233° (SW) 3,384 5.4 -26.3°
Reaches altitude 10° 19:11:31 10° 245° (WSW) 2,455 4.8 -26.7°
Maximum altitude 19:16:18 28° 303° (WNW) 1,534 4.1 -27.3°
Drops below altitude 10° 19:21:09 10° 2° (N) 2,473 5.2 -27.9°
Sets 19:23:58 0° 14° (NNE) 3,413 5.8 -28.3°
